Location: Peebles
(55.6412°N, 3.1714°W)
Time: 21:29:34
(UTC+01:00)

deb AGENA D - Pass Details

Date: 08 July 2022
Orbit: 951 x 1019 km, 99.8° (Epoch: 17 August)

Event Time Altitude Azimuth Distance (km) Brightness Sun altitude
Exits shadow 03:30:26 - 213° (SSW) 2,960 ? -6.9°
Reaches altitude 10° 03:30:57 10° 216° (SW) 2,804 ? -6.9°
Maximum altitude 03:36:03 25° 270° (W) 1,926 ? -6.5°
Drops below altitude 10° 03:41:09 10° 324° (NW) 2,807 ? -6.1°
Sets 03:44:10 0° 338° (NNW) 3,755 ? -5.9°
